Location: Newark
(48.6461°N, 4.3644°W)
Time: 20:56:58
(UTC+00:00)

STARLINK 1034 - Pass Details

Date: 10 December 2019
Orbit: 488 x 490 km, 53.0° (Epoch: 26 January)

Event Time Altitude Azimuth Distance (km) Brightness Sun altitude
Exits shadow 04:51:21 14° 135° (SE) 1,397 6.2 -29.8°
Drops below altitude 10° 04:51:55 10° 133° (SE) 1,621 6.6 -29.7°
Enters shadow 05:50:49 -64° 319° (NW) 11,953 10.4 -20.0°
